Snowfall_Accumulation
0.0 0.0 0.0 0.0 0.0 0.0 0.0 0.0 0.0 0.0 0.0 0.0 0.0 0.0 0.0 0.0 0.0 0.0 0.0 0.0 0.0 0.0 0.0 0.0 0.0 0.0 0.0 0.0 0.0 0.0 0.0 0.0 0.0 0.0 0.0 0.0 0.0 0.0 0.0 0.0 0.0 0.0 0.0 0.0 0.0 0.0 0.0
0.0 0.0 0.0 0.0 0.0 0.0 0.0 0.0 0.0 0.0 0.0 0.0 0.0 0.0 0.0 0.0 0.0 0.0 0.0 0.0 0.0 0.0 0.0 0.0 0.0 0.0 0.0 0.4 0.0 0.0 0.0 0.0 0.0 0.0 0.0 0.0 0.0 0.0 0.0 0.0 0.0 0.0 0.0 0.0 0.0 0.0 0.0
0.0 0.0 0.0 0.0 0.0 0.0 0.0 0.0 0.0 0.0 0.0 0.0 0.0 0.0 0.0 0.0 0.0 0.0 0.0 0.0 0.0 0.0 0.0 0.0 0.0 0.0 0.0 0.0 0.0 0.0 0.0 0.0 0.0 0.0 0.0 0.0 0.0 0.0 0.0 0.0 0.0 0.0 0.0 0.0 0.0 0.0 0.0
0.0 0.0 0.0 0.0 0.0 0.0 0.0 0.0 0.0 0.0 0.0 0.0 0.0 0.0 0.0 0.0 0.0 0.0 0.0 0.0 0.0 0.0 0.0 0.0 0.0 0.0 0.0 0.0 0.0 0.0 0.0 0.0 0.0 0.0 0.0 0.0 0.0 0.0 0.0 0.0 0.0 0.0 0.0 1.8 0.0 0.0 0.0
0.0 0.0 0.0 0.0 0.0 0.0 0.0 0.0 0.0 0.0 0.0 0.0 0.0 0.0 0.0 0.0 0.0 0.0 0.0 0.0 0.0 0.0 0.0 0.0 0.0 0.0 0.0 0.0 0.0 0.0 0.0 0.0 0.0 0.0 0.0 0.0 0.0 0.0 0.0 3.7 0.8 1.0 3.4 0.8 0.0 0.0 0.0
0.0 0.0 0.0 0.0 0.0 0.0 0.0 0.0 0.0 0.0 0.0 0.0 0.0 0.0 0.0 0.0 0.0 0.0 0.0 0.0 0.0 0.0 0.0 0.0 0.0 0.8 0.0 0.0 0.0 0.0 0.0 0.0 0.0 0.0 0.0 0.0 2.4 2.8 1.2 9.4 10.2 2.3 0.8 0.3 0.0 0.0 0.0
0.0 0.0 0.0 0.0 0.0 0.0 0.0 0.0 0.0 0.0 0.0 0.0 0.0 0.0 0.0 0.0 0.0 0.0 0.0 0.0 0.0 0.0 0.0 0.0 0.0 0.0 0.0 0.0 0.0 0.0 0.0 0.0 0.0 0.0 4.7 1.2 5.5 7.0 3.9 0.1 2.9 3.8 3.9 1.6 0.0 0.0 0.0
0.0 0.0 0.0 0.0 0.0 0.0 0.0 0.0 0.0 0.0 0.0 0.0 0.0 0.0 0.0 0.0 0.0 0.0 0.0 0.0 0.0 0.0 1.0 0.0 0.0 0.0 0.0 0.0 0.0 0.0 0.0 0.0 0.0 5.0 0.0 5.2 8.3 1.3 0.0 1.7 6.6 4.5 3.1 1.7 0.0 0.0 0.0
0.0 0.0 0.0 0.0 0.0 0.0 0.0 0.0 0.0 0.0 0.0 0.0 0.0 0.0 0.0 0.0 0.0 0.0 0.0 0.0 0.0 0.0 5.6 0.0 0.0 0.0 0.0 0.0 0.0 0.0 0.0 0.0 0.0 3.2 7.9 4.3 0.4 0.8 2.8 3.1 10.2 6.8 4.1 2.7 4.3 0.9 0.4
0.0 0.0 0.0 0.0 0.0 0.0 0.0 0.0 0.0 0.0 0.0 0.0 0.0 0.0 0.0 0.0 0.0 0.0 0.0 0.0 0.0 0.0 16.9 1.6 1.3 0.0 0.0 0.0 1.6 0.0 0.0 0.0 1.0 2.7 3.7 3.3 0.0 0.4 1.6 2.9 4.6 14.5 1.2 1.1 4.6 7.5 6.1
0.0 0.0 0.0 0.0 0.0 0.0 0.0 0.0 0.0 0.0 0.0 0.0 0.0 0.0 0.0 0.0 0.0 0.0 0.0 0.0 0.0 0.0 29.1 4.8 2.5 0.0 0.0 3.9 1.6 0.0 0.0 0.0 2.0 1.8 4.4 10.4 0.2 0.3 1.8 0.5 1.2 6.7 2.5 3.3 7.1 8.3 9.4
0.0 0.0 0.0 0.0 0.0 0.0 0.0 0.0 0.0 0.0 0.0 0.0 0.0 0.0 0.0 0.0 0.0 0.0 0.0 0.0 0.0 25.1 21.4 12.7 4.0 5.9 6.9 4.0 0.7 0.0 0.0 0.0 0.0 0.7 0.0 0.2 0.0 0.1 2.0 0.0 0.3 0.7 6.0 4.1 7.0 11.0 20.9
0.0 0.0 0.0 0.0 0.0 0.0 0.0 0.0 0.0 0.0 0.0 0.0 0.0 0.0 0.0 0.0 0.0 0.0 0.0 0.0 33.3 19.9 4.3 13.0 11.3 3.5 7.7 4.9 2.4 2.0 8.6 8.9 6.1 14.1 11.6 6.3 3.8 0.3 1.1 4.7 1.4 7.3 26.7 40.2 35.6 31.0 10.4
0.0 0.0 0.0 0.0 0.0 0.0 0.0 0.0 0.0 0.0 0.0 0.0 0.0 0.0 0.0 0.0 0.0 0.0 0.0 12.4 28.1 3.5 9.1 7.3 8.7 7.5 10.8 1.5 4.3 5.5 6.3 7.0 3.4 6.4 9.3 12.0 13.3 9.1 4.7 5.6 9.5 14.3 25.0 29.1 20.0 11.1 7.1
0.0 0.0 0.0 0.0 0.0 0.0 0.0 0.0 0.0 0.0 0.0 0.0 0.0 0.0 0.0 0.0 0.0 0.0 0.0 37.5 12.1 9.5 6.3 11.9 10.8 20.3 11.1 2.4 4.2 15.5 8.0 7.0 7.6 6.1 13.5 9.0 10.0 2.3 1.6 2.4 11.8 13.8 21.9 7.5 18.5 8.4 10.4
0.0 0.0 0.0 0.0 0.0 0.0 0.0 0.0 0.0 0.0 0.0 0.0 0.0 0.0 0.0 0.0 0.0 0.0 5.8 24.7 4.3 5.2 6.8 8.3 17.3 9.1 14.9 8.6 11.3 12.8 12.6 8.5 3.9 3.0 3.6 11.4 12.1 3.8 0.9 0.5 2.4 8.6 6.2 19.1 29.7 24.5 15.8
0.0 0.0 0.0 0.0 0.0 0.0 0.0 0.0 0.0 0.0 0.0 0.0 0.0 0.0 0.0 0.0 0.0 0.0 32.1 8.8 1.7 1.6 4.7 7.9 8.4 9.1 5.6 9.8 7.1 9.5 12.7 12.1 5.9 2.9 2.8 5.0 14.9 7.6 2.1 7.8 9.2 10.8 21.1 18.4 17.6 15.8 21.0
0.0 0.0 0.0 0.0 0.0 0.0 0.0 0.0 0.0 0.0 0.0 0.0 0.0 7.1 0.0 0.0 1.7 11.9 14.0 2.5 1.3 0.6 0.0 2.4 2.5 3.9 4.4 3.2 13.8 11.6 10.3 10.7 2.6 1.1 7.5 6.8 18.3 15.6 7.3 3.3 5.0 8.2 9.9 9.7 29.7 17.0 16.3
0.0 0.0 0.0 0.0 0.0 0.0 0.0 0.0 0.0 0.0 0.0 0.0 0.0 4.4 0.0 0.0 22.4 11.6 0.8 0.4 0.0 3.8 1.5 0.0 6.1 3.3 0.0 7.4 13.3 5.9 4.5 3.2 0.1 1.4 10.8 11.7 21.1 15.0 11.0 7.6 6.9 11.3 9.1 8.2 9.4 20.1 24.4
0.0 0.0 0.0 0.0 0.0 0.0 0.0 0.0 0.0 0.0 0.0 0.0 0.0 28.9 8.6 8.9 6.7 3.6 4.4 7.0 4.9 0.9 1.7 2.3 5.2 2.7 5.4 7.0 3.3 9.1 2.7 4.6 2.5 1.8 4.5 10.5 16.2 15.6 12.8 12.6 15.8 14.1 10.1 7.8 17.0 26.8 18.5
0.0 0.0 0.0 0.0 0.0 0.0 0.0 0.0 0.0 0.0 0.0 0.0 0.9 7.4 0.1 16.3 7.2 3.5 8.7 12.6 8.7 9.4 1.0 1.4 8.7 6.7 8.5 14.2 8.0 5.9 2.3 3.0 4.9 7.1 8.8 21.7 21.9 5.3 6.3 5.6 9.6 15.3 13.8 13.7 22.2 18.0 25.6
0.0 0.0 0.0 0.0 0.0 0.0 0.0 0.0 0.0 0.0 0.0 0.0 4.0 4.6 8.0 6.3 3.5 5.5 13.0 16.8 10.3 4.3 8.7 6.3 7.1 2.8 6.8 16.5 13.2 9.7 8.9 8.6 10.6 6.1 10.4 14.1 17.7 7.8 11.4 5.9 10.4 13.9 9.6 11.1 12.7 14.8 19.9
0.0 0.0 0.0 0.0 0.0 0.0 0.0 0.0 0.0 0.0 0.0 1.9 2.1 1.5 4.0 6.1 10.4 9.9 11.8 5.6 5.0 5.9 10.9 9.8 7.8 9.5 8.5 9.3 12.2 11.7 10.5 10.7 12.7 10.9 10.2 13.7 15.0 16.2 19.4 6.9 11.3 15.6 10.4 5.7 9.2 10.5 12.5
0.0 0.0 0.0 0.0 0.0 0.0 0.0 0.0 0.0 0.0 0.0 0.0 1.8 7.1 21.1 30.4 18.3 14.9 14.1 10.2 9.6 11.7 16.7 11.2 9.5 12.6 11.1 8.8 8.9 8.0 6.3 5.6 5.5 5.4 4.4 11.0 13.0 17.9 19.7 10.1 17.9 7.6 3.4 3.0 6.0 9.8 9.1
0.0 0.0 0.0 0.0 0.0 0.0 0.0 0.0 0.0 0.0 0.0 1.8 3.8 10.1 13.5 31.5 20.0 13.4 12.5 11.2 10.4 10.5 11.9 10.4 7.6 8.2 9.1 8.7 9.6 7.7 4.1 3.4 2.0 0.7 2.4 3.9 9.8 19.5 17.3 12.6 7.2 6.0 4.1 3.5 4.3 5.5 5.8
0.0 0.0 0.0 0.0 0.0 0.0 0.0 0.0 0.0 0.0 0.0 0.0 2.6 3.4 14.0 30.5 26.5 16.4 12.0 9.3 9.5 7.1 6.5 5.1 4.1 4.0 5.3 7.4 11.6 11.3 7.0 3.3 3.4 2.5 0.9 2.2 5.0 13.1 12.8 13.1 8.4 4.0 2.0 2.7 4.4 5.6 3.9
0.0 0.0 0.0 0.0 0.0 0.0 0.0 0.0 0.0 0.0 0.0 1.4 3.5 3.9 18.7 36.7 23.7 14.6 11.5 11.6 8.7 6.9 7.5 3.3 3.0 2.4 2.6 7.0 9.5 6.7 4.8 3.9 4.3 3.3 2.1 2.4 6.3 12.9 9.7 15.4 7.2 3.4 0.9 1.4 5.5 5.5 1.7
0.0 0.0 0.0 0.0 0.0 0.0 0.0 0.0 0.0 0.0 0.9 0.1 5.2 6.4 15.1 25.3 20.8 10.2 9.2 9.8 7.7 6.6 6.2 4.7 4.1 3.0 3.1 9.5 9.3 6.6 7.3 5.0 3.4 3.4 2.9 2.2 4.5 5.3 7.0 11.1 11.3 2.2 0.5 1.1 4.8 2.2 1.2
0.0 0.0 0.0 0.0 0.0 0.0 0.0 0.0 0.0 1.2 0.6 0.2 8.7 8.6 5.2 22.6 20.0 7.8 7.5 6.6 6.6 5.9 7.9 5.0 4.6 4.5 6.9 8.2 8.5 6.2 4.2 3.9 4.6 6.0 1.6 3.8 4.9 5.2 5.9 7.9 8.0 4.9 5.9 4.9 3.9 2.3 1.8